Location: Peebles
(55.6412°N, 3.1714°W)
Time: 14:40:25
(UTC+01:00)

Cosmos 1934 Rocket - Pass Details

Date: 26 September 2021
Orbit: 937 x 1000 km, 83.0° (Epoch: 17 October)

Event Time Altitude Azimuth Distance (km) Brightness Sun altitude
Exits shadow 23:30:06 56° 280° (W) 1,144 4.4 -32.7°
Maximum altitude 23:30:17 57° 288° (WNW) 1,142 4.4 -32.8°
Drops below altitude 10° 23:36:23 10° 6° (N) 2,706 6.9 -33.2°
Sets 23:38:56 0° 11° (N) 3,647 7.7 -33.3°
